M I D A S
Marine Information and Data Acquisition System
Tripno 1762 of the Zeeleeuw from 2009-07-10 07:18:04 to 2009-07-10 14:34:13
Back to CruiseResearch ActivitiesStationsMapUnderway DataData graphs

EquipmentUnitsComments
TimeDGPSUTC
LatitudeDGPSDM.mWGS84
LongitudeDGPSDM.mWGS84
SpeedMeteo Stationm/sRelative wind speed
DirectionMeteo StationdegRelative wind direction
TemperatureMeteo Stationdeg CelciusAir temperature
PressureMeteo StationPaAtmospheric pressure
HumidityMeteo Station%Relative humidity
Missing or incorrect values are displayed as -999
Metereological data collected by the RV Zeeleeuw from 2009-07-10 06:19:00 to 2009-07-10 14:42:13
                                                                                    Next 1000 lines
Time Latitude Longitude Speed Direction Temperature Pressure Humidity
2009-07-10 06:19:10 51°13.659 2°55.963 7.1 80 14.8 101400 64
2009-07-10 06:19:15 51°13.659 2°55.963 6.7 39 14.8 101400 64
2009-07-10 06:19:20 51°13.659 2°55.963 4.3 77 14.8 101400 63
2009-07-10 06:19:25 51°13.66 2°55.963 5.6 40 14.8 101400 63
2009-07-10 06:19:30 51°13.66 2°55.963 5.7 28 14.8 101400 63
2009-07-10 06:19:35 51°13.66 2°55.963 5.9 35 14.8 101400 63
2009-07-10 06:19:40 51°13.66 2°55.963 6.6 77 14.8 101400 63
2009-07-10 06:19:45 51°13.66 2°55.963 4.8 38 14.8 101400 63
2009-07-10 06:19:50 51°13.66 2°55.963 6 76 14.8 101390 63
2009-07-10 06:19:55 51°13.661 2°55.963 5.5 39 14.8 101390 63
2009-07-10 06:20:00 51°13.661 2°55.962 4.4 78 14.8 101400 63
2009-07-10 06:20:05 51°13.661 2°55.962 6.2 30 14.8 101400 63
2009-07-10 06:20:10 51°13.661 2°55.962 5.1 76 14.8 101400 63
2009-07-10 06:20:15 51°13.661 2°55.962 5.5 34 14.8 101400 63
2009-07-10 06:20:20 51°13.661 2°55.962 5.1 74 14.8 101390 63
2009-07-10 06:20:25 51°13.661 2°55.962 3.8 32 14.8 101390 63
2009-07-10 06:20:30 51°13.661 2°55.962 4.8 26 14.8 101400 63
2009-07-10 06:20:35 51°13.662 2°55.962 5.1 37 14.8 101400 63
2009-07-10 06:20:40 51°13.662 2°55.962 5 79 14.8 101400 63
2009-07-10 06:20:45 51°13.662 2°55.962 4.3 37 14.8 101400 63
2009-07-10 06:20:50 51°13.662 2°55.962 5.5 79 14.8 101400 63
2009-07-10 06:20:55 51°13.661 2°55.962 7.3 33 14.8 101400 63
2009-07-10 06:21:00 51°13.661 2°55.962 6.9 83 14.8 101400 63
2009-07-10 06:21:05 51°13.661 2°55.962 6.7 35 14.8 101400 63
2009-07-10 06:21:10 51°13.661 2°55.962 4.8 81 14.8 101400 63
2009-07-10 06:21:15 51°13.661 2°55.962 4.4 39 14.8 101400 63
2009-07-10 06:21:20 51°13.661 2°55.962 4.4 75 14.8 101400 62
2009-07-10 06:21:25 51°13.661 2°55.962 4.3 34 14.8 101400 62
2009-07-10 06:21:30 51°13.661 2°55.962 3.9 24 14.8 101400 63
2009-07-10 06:21:35 51°13.661 2°55.962 5.1 37 14.8 101400 63
2009-07-10 06:21:40 51°13.661 2°55.962 4.2 80 14.8 101400 62
2009-07-10 06:21:45 51°13.661 2°55.962 4.6 32 14.8 101400 62
2009-07-10 06:21:50 51°13.661 2°55.962 4.5 75 14.8 101400 63
2009-07-10 06:21:55 51°13.661 2°55.962 5.3 32 14.8 101400 63
2009-07-10 06:22:00 51°13.661 2°55.962 5.6 82 14.8 101400 63
2009-07-10 06:22:05 51°13.661 2°55.962 6.3 33 14.8 101400 63
2009-07-10 06:22:10 51°13.661 2°55.962 6 76 14.8 101400 64
2009-07-10 06:22:15 51°13.661 2°55.962 5.2 31 14.8 101400 64
2009-07-10 06:22:20 51°13.661 2°55.962 4.8 77 14.8 101400 64
2009-07-10 06:22:25 51°13.661 2°55.962 5.6 31 14.8 101400 64
2009-07-10 06:22:30 51°13.661 2°55.962 7 27 14.8 101400 62
2009-07-10 06:22:35 51°13.661 2°55.962 5.5 32 14.8 101400 62
2009-07-10 06:22:40 51°13.661 2°55.962 6.3 74 14.8 101400 61
2009-07-10 06:22:45 51°13.661 2°55.962 5.6 38 14.8 101400 61
2009-07-10 06:22:50 51°13.661 2°55.962 5.5 75 14.7 101400 61
2009-07-10 06:22:55 51°13.661 2°55.962 5.1 32 14.7 101400 61
2009-07-10 06:23:00 51°13.661 2°55.962 5.1 80 14.7 101400 61
2009-07-10 06:23:05 51°13.661 2°55.962 4.3 33 14.7 101400 61
2009-07-10 06:23:10 51°13.661 2°55.962 4.4 74 14.7 101400 63
2009-07-10 06:23:15 51°13.662 2°55.962 5.1 40 14.7 101400 63
2009-07-10 06:23:20 51°13.662 2°55.962 3.7 81 14.8 101400 61
2009-07-10 06:23:25 51°13.662 2°55.962 6 39 14.8 101400 61
2009-07-10 06:23:30 51°13.662 2°55.962 8 24 14.8 101410 62
2009-07-10 06:23:35 51°13.662 2°55.962 4.8 33 14.8 101410 62
2009-07-10 06:23:40 51°13.662 2°55.962 4.4 74 14.8 101400 62
2009-07-10 06:23:45 51°13.662 2°55.962 7.3 37 14.8 101400 62
2009-07-10 06:23:50 51°13.662 2°55.962 5.1 76 14.8 101400 63
2009-07-10 06:23:55 51°13.662 2°55.962 5.3 34 14.8 101400 63
2009-07-10 06:24:00 51°13.662 2°55.962 4.5 74 14.8 101400 62
2009-07-10 06:24:05 51°13.662 2°55.962 4.2 32 14.8 101400 62
2009-07-10 06:24:10 51°13.662 2°55.962 3.3 81 14.8 101400 63
2009-07-10 06:24:15 51°13.662 2°55.961 3.5 36 14.8 101400 63
2009-07-10 06:24:20 51°13.662 2°55.961 4.7 76 14.8 101400 63
2009-07-10 06:24:25 51°13.662 2°55.961 6.3 40 14.8 101400 63
2009-07-10 06:24:30 51°13.662 2°55.961 5.8 26 14.8 101400 64
2009-07-10 06:24:35 51°13.662 2°55.961 3.9 38 14.8 101400 64
2009-07-10 06:24:40 51°13.662 2°55.961 5.9 78 14.8 101400 63
2009-07-10 06:24:45 51°13.662 2°55.961 5.9 38 14.8 101400 63
2009-07-10 06:24:49 51°13.662 2°55.961 5.3 81 14.9 101400 64
2009-07-10 06:24:54 51°13.662 2°55.961 4.5 32 14.9 101400 64
2009-07-10 06:24:59 51°13.662 2°55.961 5.2 35 14.9 101400 64
2009-07-10 06:25:05 51°13.662 2°55.961 4 40 14.9 101400 64
2009-07-10 06:25:10 51°13.662 2°55.961 5.4 75 14.8 101400 64
2009-07-10 06:25:15 51°13.662 2°55.961 4.2 31 14.8 101400 64
2009-07-10 06:25:20 51°13.662 2°55.961 4.9 78 14.8 101400 63
2009-07-10 06:25:25 51°13.663 2°55.962 4.8 39 14.8 101400 63
2009-07-10 06:25:29 51°13.663 2°55.962 4.7 44 14.9 101400 64
2009-07-10 06:25:34 51°13.663 2°55.962 5.5 41 14.9 101400 64
2009-07-10 06:25:39 51°13.663 2°55.962 6.6 44 14.9 101400 64
2009-07-10 06:25:45 51°13.663 2°55.961 6.2 33 14.9 101400 64
2009-07-10 06:25:50 51°13.663 2°55.962 7.6 38 14.9 101400 63
2009-07-10 06:25:55 51°13.663 2°55.962 5.5 39 14.9 101400 63
2009-07-10 06:26:00 51°13.663 2°55.962 7 41 14.9 101400 64
2009-07-10 06:26:05 51°13.663 2°55.961 6.1 36 14.9 101400 64
2009-07-10 06:26:10 51°13.663 2°55.961 6.4 44 14.9 101390 64
2009-07-10 06:26:14 51°13.663 2°55.962 6.5 41 14.9 101390 64
2009-07-10 06:26:19 51°13.663 2°55.962 6 75 14.9 101400 64
2009-07-10 06:26:25 51°13.663 2°55.962 6.8 40 14.9 101400 64
2009-07-10 06:26:30 51°13.663 2°55.961 7.2 45 14.9 101400 63
2009-07-10 06:26:35 51°13.663 2°55.961 5.6 39 14.9 101400 63
2009-07-10 06:26:40 51°13.663 2°55.961 7.1 81 14.9 101400 64
2009-07-10 06:26:45 51°13.663 2°55.961 6.1 44 14.9 101400 64
2009-07-10 06:26:50 51°13.663 2°55.961 6.1 75 14.9 101400 64
2009-07-10 06:26:55 51°13.663 2°55.962 5.1 35 14.9 101400 64
2009-07-10 06:27:00 51°13.663 2°55.961 5.6 81 14.9 101400 65
2009-07-10 06:27:05 51°13.663 2°55.961 6.1 32 14.9 101400 65
2009-07-10 06:27:10 51°13.663 2°55.961 8.1 75 14.9 101400 63
2009-07-10 06:27:15 51°13.663 2°55.961 7.7 31 14.9 101400 63
2009-07-10 06:27:20 51°13.663 2°55.961 5.6 42 14.9 101400 63
2009-07-10 06:27:25 51°13.663 2°55.961 5.8 37 14.9 101400 63
2009-07-10 06:27:30 51°13.663 2°55.961 5.5 22 14.9 101400 64
2009-07-10 06:27:35 51°13.663 2°55.961 4.9 41 14.9 101400 64
2009-07-10 06:27:40 51°13.663 2°55.961 4.3 80 14.9 101400 64
2009-07-10 06:27:45 51°13.663 2°55.961 4.9 37 14.9 101400 64
2009-07-10 06:27:50 51°13.663 2°55.961 5 83 14.9 101400 64
2009-07-10 06:27:55 51°13.663 2°55.961 5.4 33 14.9 101400 64
2009-07-10 06:28:00 51°13.663 2°55.961 5.9 75 14.9 101390 64
2009-07-10 06:28:05 51°13.662 2°55.961 4.4 35 14.9 101390 64
2009-07-10 06:28:10 51°13.663 2°55.961 4.8 82 14.9 101400 65
2009-07-10 06:28:15 51°13.663 2°55.961 3.5 37 14.9 101400 65
2009-07-10 06:28:20 51°13.662 2°55.961 5.6 80 14.9 101400 65
2009-07-10 06:28:25 51°13.663 2°55.961 6.7 38 14.9 101400 65
2009-07-10 06:28:30 51°13.662 2°55.961 7.6 24 14.9 101400 64
2009-07-10 06:28:35 51°13.662 2°55.961 5.5 34 14.9 101400 64
2009-07-10 06:28:40 51°13.662 2°55.961 7.1 75 14.9 101400 65
2009-07-10 06:28:45 51°13.662 2°55.961 6.7 43 14.9 101400 65
2009-07-10 06:28:50 51°13.662 2°55.961 6.7 42 14.9 101400 64
2009-07-10 06:28:55 51°13.662 2°55.961 5.4 43 14.9 101400 64
2009-07-10 06:29:00 51°13.662 2°55.961 5.3 79 14.9 101400 64
2009-07-10 06:29:05 51°13.662 2°55.961 5.4 39 14.9 101400 64
2009-07-10 06:29:10 51°13.662 2°55.961 5.3 73 14.8 101400 63
2009-07-10 06:29:15 51°13.662 2°55.961 6.3 37 14.8 101400 63
2009-07-10 06:29:20 51°13.662 2°55.961 7.8 82 14.8 101400 64
2009-07-10 06:29:25 51°13.662 2°55.96 7 39 14.8 101400 64
2009-07-10 06:29:30 51°13.662 2°55.96 6 27 14.9 101400 64
2009-07-10 06:29:35 51°13.662 2°55.96 3.9 30 14.9 101400 64
2009-07-10 06:29:40 51°13.662 2°55.96 4.9 81 14.9 101400 65
2009-07-10 06:29:45 51°13.662 2°55.96 4.8 40 14.9 101400 65
2009-07-10 06:29:50 51°13.662 2°55.96 7.9 75 14.9 101400 63
2009-07-10 06:29:55 51°13.662 2°55.96 6.6 33 14.9 101400 63
2009-07-10 06:30:00 51°13.662 2°55.96 4.9 74 14.8 101400 64
2009-07-10 06:30:05 51°13.662 2°55.96 6 38 14.8 101400 64
2009-07-10 06:30:10 51°13.662 2°55.96 5.6 81 14.8 101400 63
2009-07-10 06:30:15 51°13.662 2°55.96 6.8 33 14.8 101400 63
2009-07-10 06:30:20 51°13.662 2°55.96 7.2 81 14.8 101400 64
2009-07-10 06:30:25 51°13.662 2°55.96 4.3 31 14.8 101400 64
2009-07-10 06:30:30 51°13.662 2°55.96 4 28 14.8 101400 63
2009-07-10 06:30:35 51°13.662 2°55.96 5.1 35 14.8 101400 63
2009-07-10 06:30:40 51°13.662 2°55.96 6.9 80 14.8 101400 62
2009-07-10 06:30:45 51°13.662 2°55.96 6.5 38 14.8 101400 62
2009-07-10 06:30:50 51°13.662 2°55.96 4.9 82 14.8 101410 63
2009-07-10 06:30:55 51°13.662 2°55.96 4.4 33 14.8 101410 63
2009-07-10 06:31:00 51°13.662 2°55.96 3.8 74 14.8 101400 62
2009-07-10 06:31:05 51°13.662 2°55.96 6.1 38 14.8 101400 62
2009-07-10 06:31:10 51°13.662 2°55.96 5.1 82 14.8 101410 63
2009-07-10 06:31:15 51°13.662 2°55.96 4.7 38 14.8 101410 63
2009-07-10 06:31:20 51°13.662 2°55.96 4.9 76 14.8 101410 62
2009-07-10 06:31:25 51°13.662 2°55.96 5.8 38 14.8 101410 62
2009-07-10 06:31:30 51°13.662 2°55.96 5.3 26 14.8 101410 61
2009-07-10 06:31:35 51°13.662 2°55.96 7 31 14.8 101410 61
2009-07-10 06:31:40 51°13.662 2°55.96 6.1 76 14.7 101410 62
2009-07-10 06:31:45 51°13.662 2°55.96 6.1 36 14.7 101410 62
2009-07-10 06:31:50 51°13.662 2°55.96 5.6 76 14.8 101410 62
2009-07-10 06:31:55 51°13.662 2°55.96 4.7 32 14.8 101410 62
2009-07-10 06:32:00 51°13.662 2°55.96 5.2 81 14.8 101410 62
2009-07-10 06:32:05 51°13.662 2°55.96 6 39 14.8 101410 62
2009-07-10 06:32:10 51°13.662 2°55.96 5.7 79 14.8 101410 62
2009-07-10 06:32:15 51°13.662 2°55.96 4.6 37 14.8 101410 62
2009-07-10 06:32:20 51°13.662 2°55.96 2.6 74 14.8 101400 62
2009-07-10 06:32:25 51°13.662 2°55.96 4.6 40 14.8 101400 62
2009-07-10 06:32:30 51°13.662 2°55.96 4 27 14.8 101410 63
2009-07-10 06:32:35 51°13.662 2°55.96 5.2 34 14.8 101410 63
2009-07-10 06:32:40 51°13.662 2°55.96 6.4 80 14.8 101400 63
2009-07-10 06:32:45 51°13.662 2°55.96 5.1 31 14.8 101400 63
2009-07-10 06:32:50 51°13.662 2°55.96 4.9 78 14.8 101410 63
2009-07-10 06:32:55 51°13.662 2°55.96 6.4 39 14.8 101410 63
2009-07-10 06:33:00 51°13.662 2°55.96 5.1 76 14.8 101410 62
2009-07-10 06:33:05 51°13.662 2°55.96 4.7 39 14.8 101410 62
2009-07-10 06:33:10 51°13.662 2°55.96 4.3 44 14.8 101410 62
2009-07-10 06:33:15 51°13.662 2°55.96 4.7 37 14.8 101410 62
2009-07-10 06:33:20 51°13.662 2°55.96 4.2 42 14.8 101410 63
2009-07-10 06:33:25 51°13.662 2°55.96 3.9 37 14.8 101410 63
2009-07-10 06:33:30 51°13.662 2°55.96 3.7 19 14.8 101410 62
2009-07-10 06:33:35 51°13.662 2°55.96 5.4 43 14.8 101410 62
2009-07-10 06:33:40 51°13.662 2°55.959 5.8 78 14.8 101410 62
2009-07-10 06:33:45 51°13.662 2°55.959 5.4 38 14.8 101410 62
2009-07-10 06:33:50 51°13.662 2°55.959 4.7 80 14.8 101410 62
2009-07-10 06:33:55 51°13.662 2°55.96 2.9 36 14.8 101410 62
2009-07-10 06:34:00 51°13.662 2°55.959 2.6 82 14.8 101410 63
2009-07-10 06:34:05 51°13.662 2°55.959 3.3 33 14.8 101410 63
2009-07-10 06:34:10 51°13.662 2°55.959 4.3 79 14.8 101410 63
2009-07-10 06:34:15 51°13.662 2°55.96 4 37 14.8 101410 63
2009-07-10 06:34:20 51°13.662 2°55.96 3.7 82 14.9 101410 63
2009-07-10 06:34:25 51°13.663 2°55.96 5.6 37 14.9 101410 63
2009-07-10 06:34:30 51°13.663 2°55.96 4.5 27 14.9 101410 63
2009-07-10 06:34:35 51°13.663 2°55.96 3 31 14.9 101410 63
2009-07-10 06:34:40 51°13.663 2°55.96 5.9 74 14.9 101400 62
2009-07-10 06:34:45 51°13.663 2°55.96 8.8 33 14.9 101400 62
2009-07-10 06:34:50 51°13.663 2°55.96 7 75 14.9 101410 62
2009-07-10 06:34:55 51°13.663 2°55.96 7.2 38 14.9 101410 62
2009-07-10 06:35:00 51°13.663 2°55.96 6.2 79 14.9 101410 62
2009-07-10 06:35:05 51°13.663 2°55.96 5.8 37 14.9 101410 62
2009-07-10 06:35:10 51°13.663 2°55.96 5.9 78 14.9 101410 63
2009-07-10 06:35:15 51°13.663 2°55.96 6.6 35 14.9 101410 63
2009-07-10 06:35:20 51°13.663 2°55.96 3.6 80 14.8 101410 62
2009-07-10 06:35:25 51°13.663 2°55.96 4.1 38 14.8 101410 62
2009-07-10 06:35:30 51°13.663 2°55.96 5.4 26 14.8 101410 63
2009-07-10 06:35:35 51°13.663 2°55.961 4.6 35 14.8 101410 63
2009-07-10 06:35:40 51°13.663 2°55.961 5.5 75 14.8 101410 62
2009-07-10 06:35:45 51°13.663 2°55.96 4.9 35 14.8 101410 62
2009-07-10 06:35:50 51°13.663 2°55.96 5.4 77 14.8 101410 63
2009-07-10 06:35:55 51°13.663 2°55.96 3.4 36 14.8 101410 63
2009-07-10 06:36:00 51°13.663 2°55.96 7.5 80 14.8 101400 62
2009-07-10 06:36:05 51°13.663 2°55.96 6 38 14.8 101400 62
2009-07-10 06:36:10 51°13.663 2°55.96 5.1 80 14.8 101400 63
2009-07-10 06:36:15 51°13.663 2°55.96 4.8 34 14.8 101400 63
2009-07-10 06:36:20 51°13.663 2°55.96 5.2 79 14.8 101400 63
2009-07-10 06:36:25 51°13.663 2°55.96 4 31 14.8 101400 63
2009-07-10 06:36:30 51°13.663 2°55.96 4.7 22 14.8 101400 63
2009-07-10 06:36:35 51°13.663 2°55.96 3.2 40 14.8 101400 63
2009-07-10 06:36:40 51°13.663 2°55.96 4.3 81 14.9 101410 64
2009-07-10 06:36:45 51°13.663 2°55.96 3 39 14.9 101410 64
2009-07-10 06:36:50 51°13.663 2°55.96 4.5 75 14.9 101400 63
2009-07-10 06:36:55 51°13.663 2°55.96 5.1 40 14.9 101400 63
2009-07-10 06:37:00 51°13.663 2°55.96 4.1 80 14.9 101400 64
2009-07-10 06:37:05 51°13.663 2°55.96 5.3 36 14.9 101400 64
2009-07-10 06:37:10 51°13.663 2°55.96 5.1 79 14.9 101400 63
2009-07-10 06:37:15 51°13.663 2°55.96 3.2 39 14.9 101400 63
2009-07-10 06:37:20 51°13.663 2°55.959 3.8 81 14.9 101400 63
2009-07-10 06:37:25 51°13.663 2°55.959 4.8 34 14.9 101400 63
2009-07-10 06:37:30 51°13.663 2°55.959 4.5 26 14.9 101410 63
2009-07-10 06:37:35 51°13.663 2°55.959 5.8 37 14.9 101410 63
2009-07-10 06:37:40 51°13.663 2°55.959 6.7 75 14.9 101400 63
2009-07-10 06:37:45 51°13.663 2°55.959 5 33 14.9 101400 63
2009-07-10 06:37:50 51°13.663 2°55.959 4.5 43 15 101400 63
2009-07-10 06:37:55 51°13.663 2°55.959 7.1 41 15 101400 63
2009-07-10 06:38:00 51°13.663 2°55.959 6 81 14.9 101410 64
2009-07-10 06:38:05 51°13.663 2°55.959 6.8 34 14.9 101410 64
2009-07-10 06:38:10 51°13.663 2°55.959 6 81 14.9 101410 62
2009-07-10 06:38:15 51°13.663 2°55.959 9.6 36 14.9 101410 62
2009-07-10 06:38:20 51°13.663 2°55.959 8.7 78 14.9 101400 62
2009-07-10 06:38:25 51°13.663 2°55.959 8.1 39 14.9 101400 62
2009-07-10 06:38:30 51°13.663 2°55.959 8.6 25 14.9 101400 63
2009-07-10 06:38:35 51°13.663 2°55.959 7.4 40 14.9 101400 63
2009-07-10 06:38:40 51°13.663 2°55.959 7.1 75 14.9 101410 63
2009-07-10 06:38:45 51°13.663 2°55.959 5.8 41 14.9 101410 63
2009-07-10 06:38:50 51°13.663 2°55.959 6.6 77 14.9 101410 61
2009-07-10 06:38:55 51°13.663 2°55.959 6.9 34 14.9 101410 61
2009-07-10 06:39:00 51°13.663 2°55.959 4.6 82 14.8 101410 61
2009-07-10 06:39:05 51°13.663 2°55.959 6.3 34 14.8 101410 61
2009-07-10 06:39:10 51°13.663 2°55.959 6.3 74 14.8 101400 60
2009-07-10 06:39:15 51°13.663 2°55.959 6.3 37 14.8 101400 60
2009-07-10 06:39:20 51°13.663 2°55.959 3.7 76 14.8 101400 61
2009-07-10 06:39:25 51°13.663 2°55.959 3.3 32 14.8 101400 61
2009-07-10 06:39:30 51°13.663 2°55.959 4.2 22 14.8 101400 61
2009-07-10 06:39:35 51°13.663 2°55.958 3.2 39 14.8 101400 61
2009-07-10 06:39:40 51°13.662 2°55.959 5.9 74 14.9 101400 61
2009-07-10 06:39:45 51°13.662 2°55.958 5 31 14.9 101400 61
2009-07-10 06:39:50 51°13.662 2°55.958 5.6 75 14.8 101400 62
2009-07-10 06:39:55 51°13.662 2°55.959 4.4 37 14.8 101400 62
2009-07-10 06:40:00 51°13.662 2°55.959 5 75 14.9 101400 62
2009-07-10 06:40:05 51°13.662 2°55.959 5.1 43 14.9 101400 62
2009-07-10 06:40:10 51°13.662 2°55.959 5.3 82 14.9 101410 62
2009-07-10 06:40:15 51°13.662 2°55.959 4.8 34 14.9 101410 62
2009-07-10 06:40:20 51°13.662 2°55.959 5.7 77 14.9 101410 63
2009-07-10 06:40:25 51°13.662 2°55.959 6.2 32 14.9 101410 63
2009-07-10 06:40:30 51°13.662 2°55.959 5.3 20 14.9 101400 62
2009-07-10 06:40:35 51°13.662 2°55.959 6.8 35 14.9 101400 62
2009-07-10 06:40:40 51°13.662 2°55.959 5.3 44 14.9 101400 62
2009-07-10 06:40:45 51°13.662 2°55.959 5.1 33 14.9 101400 62
2009-07-10 06:40:50 51°13.662 2°55.959 6.3 40 14.9 101410 63
2009-07-10 06:40:55 51°13.662 2°55.959 7.6 37 14.9 101410 63
2009-07-10 06:41:00 51°13.662 2°55.959 5.3 33 14.9 101410 63
2009-07-10 06:41:05 51°13.662 2°55.959 7.2 31 14.9 101410 63
2009-07-10 06:41:10 51°13.662 2°55.959 5.2 43 15 101410 64
2009-07-10 06:41:15 51°13.662 2°55.959 4.9 33 15 101410 64
2009-07-10 06:41:20 51°13.662 2°55.959 4.2 76 15 101400 63
2009-07-10 06:41:25 51°13.662 2°55.959 2.7 37 15 101400 63
2009-07-10 06:41:30 51°13.662 2°55.959 4.7 21 15 101400 64
2009-07-10 06:41:35 51°13.662 2°55.959 2.9 40 15 101400 64
2009-07-10 06:41:40 51°13.662 2°55.959 3.9 78 15 101400 64
2009-07-10 06:41:45 51°13.662 2°55.959 4.1 34 15 101400 64
2009-07-10 06:41:50 51°13.662 2°55.959 3.7 81 15 101410 63
2009-07-10 06:41:55 51°13.662 2°55.959 4 39 15 101410 63
2009-07-10 06:42:00 51°13.662 2°55.959 3 81 15 101410 64
2009-07-10 06:42:05 51°13.662 2°55.959 3.4 31 15 101410 64
2009-07-10 06:42:10 51°13.662 2°55.959 3.7 79 15.1 101410 64
2009-07-10 06:42:15 51°13.662 2°55.959 2.8 37 15.1 101410 64
2009-07-10 06:42:20 51°13.662 2°55.959 5 75 15.1 101410 64
2009-07-10 06:42:25 51°13.662 2°55.959 5.7 44 15.1 101410 64
2009-07-10 06:42:30 51°13.662 2°55.959 6.9 26 15.1 101410 64
2009-07-10 06:42:35 51°13.662 2°55.959 7.4 34 15.1 101410 64
2009-07-10 06:42:40 51°13.662 2°55.959 7.7 42 15.1 101410 64
2009-07-10 06:42:45 51°13.662 2°55.959 6.6 36 15.1 101410 64
2009-07-10 06:42:50 51°13.662 2°55.959 4.8 39 15.1 101410 62
2009-07-10 06:42:55 51°13.662 2°55.959 5.8 37 15.1 101410 62
2009-07-10 06:43:00 51°13.662 2°55.959 6.6 42 15 101410 62
2009-07-10 06:43:05 51°13.662 2°55.959 6.3 37 15 101410 62
2009-07-10 06:43:10 51°13.662 2°55.959 5.3 42 15 101410 62
2009-07-10 06:43:15 51°13.662 2°55.959 6.8 43 15 101410 62
2009-07-10 06:43:20 51°13.662 2°55.959 5.4 42 15 101410 62
2009-07-10 06:43:25 51°13.662 2°55.959 4.7 35 15 101410 62
2009-07-10 06:43:30 51°13.662 2°55.959 5 34 15 101410 63
2009-07-10 06:43:35 51°13.662 2°55.959 7.3 35 15 101410 63
2009-07-10 06:43:40 51°13.662 2°55.959 8 38 15.1 101410 63
2009-07-10 06:43:45 51°13.662 2°55.959 6.2 44 15.1 101410 63
2009-07-10 06:43:50 51°13.663 2°55.959 6.4 75 15.1 101410 62
2009-07-10 06:43:56 51°13.663 2°55.959 6.4 75 15.1 101410 62
2009-07-10 06:44:01 51°13.662 2°55.959 6.4 75 15.1 101410 62
2009-07-10 06:44:06 51°13.663 2°55.959 6.4 75 15.1 101410 62
2009-07-10 06:44:11 51°13.663 2°55.959 6.4 75 15.1 101410 62
2009-07-10 06:44:16 51°13.663 2°55.959 6.4 75 -999 -999 -999
2009-07-10 06:44:21 51°13.663 2°55.959 -999 -999 -999 -999 -999
2009-07-10 06:44:26 51°13.663 2°55.959 -999 -999 -999 -999 -999
2009-07-10 06:44:31 51°13.662 2°55.958 7.9 130 -999 -999 -999
2009-07-10 06:44:36 51°13.662 2°55.958 4.1 41 -999 -999 -999
2009-07-10 06:44:41 51°13.662 2°55.957 5 75 -999 -999 -999
2009-07-10 06:44:46 51°13.661 2°55.957 3.6 28 15.1 -999 62
2009-07-10 06:44:51 51°13.661 2°55.957 4.6 80 15.1 -999 62
2009-07-10 06:44:56 51°13.661 2°55.957 6.4 25 15.1 -999 63
2009-07-10 06:45:01 51°13.661 2°55.957 5.3 80 15.1 -999 63
2009-07-10 06:45:06 51°13.662 2°55.957 5.7 41 15.1 101410 63
2009-07-10 06:45:11 51°13.662 2°55.958 7.2 39 15.1 101410 63
2009-07-10 06:45:16 51°13.662 2°55.958 8.8 44 15.1 101410 64
2009-07-10 06:45:21 51°13.662 2°55.958 7.7 43 15.1 101410 64
2009-07-10 06:45:26 51°13.662 2°55.958 7.4 43 15.1 101410 64
2009-07-10 06:45:31 51°13.662 2°55.958 8.7 75 15.1 101410 64
2009-07-10 06:45:36 51°13.662 2°55.958 7.3 43 15.1 101410 64
2009-07-10 06:45:41 51°13.662 2°55.958 6.9 44 15.1 101410 64
2009-07-10 06:45:46 51°13.662 2°55.958 8 38 15 101400 63
2009-07-10 06:45:51 51°13.662 2°55.959 7.3 81 15 101400 63
2009-07-10 06:45:56 51°13.662 2°55.958 7.1 20 15 101410 64
2009-07-10 06:46:01 51°13.662 2°55.958 7.2 76 15 101410 64
2009-07-10 06:46:06 51°13.662 2°55.958 6.4 28 15 101410 64
2009-07-10 06:46:11 51°13.663 2°55.958 6.4 82 15 101410 64
2009-07-10 06:46:16 51°13.663 2°55.958 4.6 36 15 101410 62
2009-07-10 06:46:21 51°13.663 2°55.958 5 80 15 101410 62
2009-07-10 06:46:26 51°13.663 2°55.958 6.7 28 15 101410 62
2009-07-10 06:46:31 51°13.663 2°55.958 7.9 42 15 101410 62
2009-07-10 06:46:36 51°13.662 2°55.958 8.6 37 15 101410 64
2009-07-10 06:46:41 51°13.663 2°55.958 7.3 42 15 101410 64
2009-07-10 06:46:46 51°13.662 2°55.958 7.3 39 15 101410 64
2009-07-10 06:46:51 51°13.663 2°55.958 7 41 15 101410 64
2009-07-10 06:46:56 51°13.663 2°55.958 5.6 29 15 101410 63
2009-07-10 06:47:01 51°13.663 2°55.958 5.3 78 15 101410 63
2009-07-10 06:47:06 51°13.663 2°55.958 3.9 21 15.1 101410 64
2009-07-10 06:47:11 51°13.662 2°55.958 4.6 82 15.1 101410 64
2009-07-10 06:47:16 51°13.662 2°55.958 3.6 27 15.1 101410 63
2009-07-10 06:47:21 51°13.663 2°55.958 5.2 75 15.1 101410 63
2009-07-10 06:47:26 51°13.663 2°55.958 4.3 42 15.1 101410 64
2009-07-10 06:47:31 51°13.663 2°55.958 3.6 80 15.1 101410 64
2009-07-10 06:47:36 51°13.663 2°55.959 5.2 21 15.1 101410 65
2009-07-10 06:47:41 51°13.663 2°55.959 4.7 79 15.1 101410 65
2009-07-10 06:47:46 51°13.663 2°55.959 5.5 29 15.1 101420 64
2009-07-10 06:47:51 51°13.663 2°55.959 5.9 81 15.1 101420 64
2009-07-10 06:47:56 51°13.663 2°55.959 4.8 25 15.1 101410 64
2009-07-10 06:48:01 51°13.663 2°55.959 6.2 74 15.1 101410 64
2009-07-10 06:48:06 51°13.663 2°55.959 6.6 43 15.1 101420 64
2009-07-10 06:48:11 51°13.663 2°55.959 5.3 42 15.1 101420 64
2009-07-10 06:48:16 51°13.664 2°55.959 5.7 23 15.1 101410 64
2009-07-10 06:48:21 51°13.664 2°55.959 5.8 40 15.1 101410 64
2009-07-10 06:48:26 51°13.664 2°55.959 4.7 37 15.1 101410 64
2009-07-10 06:48:31 51°13.664 2°55.959 5.7 39 15.1 101410 64
2009-07-10 06:48:36 51°13.664 2°55.959 6.2 29 15.1 101410 64
2009-07-10 06:48:41 51°13.663 2°55.959 7.4 80 15.1 101410 64
2009-07-10 06:48:46 51°13.663 2°55.959 5.7 29 15.1 101410 64
2009-07-10 06:48:51 51°13.663 2°55.959 6.5 79 15.1 101410 64
2009-07-10 06:48:56 51°13.663 2°55.959 7.2 37 15.1 101410 63
2009-07-10 06:49:01 51°13.663 2°55.959 5.8 42 15.1 101410 63
2009-07-10 06:49:06 51°13.663 2°55.959 7.3 40 15.1 101420 63
2009-07-10 06:49:11 51°13.663 2°55.959 5.2 42 15.1 101420 63
2009-07-10 06:49:16 51°13.663 2°55.959 6.3 38 15.1 101410 63
2009-07-10 06:49:21 51°13.663 2°55.959 6.4 42 15.1 101410 63
2009-07-10 06:49:26 51°13.663 2°55.959 6.7 38 15.1 101410 63
2009-07-10 06:49:31 51°13.663 2°55.959 4.8 36 15.1 101410 63
2009-07-10 06:49:36 51°13.663 2°55.959 5.5 28 15.2 101410 64
2009-07-10 06:49:41 51°13.663 2°55.959 5.7 80 15.2 101410 64
2009-07-10 06:49:46 51°13.663 2°55.959 4.3 20 15.1 101410 63
2009-07-10 06:49:51 51°13.663 2°55.959 5 78 15.1 101410 63
2009-07-10 06:49:56 51°13.663 2°55.959 3.9 24 15.1 101410 64
2009-07-10 06:50:01 51°13.663 2°55.959 4 74 15.1 101410 64
2009-07-10 06:50:06 51°13.663 2°55.959 3.9 23 15.2 101410 64
2009-07-10 06:50:11 51°13.663 2°55.959 4.2 76 15.2 101410 64
2009-07-10 06:50:16 51°13.663 2°55.959 4.8 28 15.2 101410 65
2009-07-10 06:50:21 51°13.663 2°55.959 5.9 39 15.2 101410 65
2009-07-10 06:50:26 51°13.663 2°55.959 4.2 30 15.2 101410 65
2009-07-10 06:50:31 51°13.663 2°55.959 5.3 38 15.2 101410 65
2009-07-10 06:50:36 51°13.663 2°55.958 5.6 42 15.1 101410 64
2009-07-10 06:50:41 51°13.663 2°55.958 3.9 79 15.1 101410 64
2009-07-10 06:50:46 51°13.663 2°55.958 5 22 15.2 101410 63
2009-07-10 06:50:51 51°13.663 2°55.958 4.9 74 15.2 101410 63
2009-07-10 06:50:56 51°13.663 2°55.958 4.4 26 15.1 101410 63
2009-07-10 06:51:01 51°13.663 2°55.958 3.9 77 15.1 101410 63
2009-07-10 06:51:06 51°13.663 2°55.958 3.6 20 15.2 101410 63
2009-07-10 06:51:11 51°13.663 2°55.958 4.6 56 15.2 101410 63
2009-07-10 06:51:16 51°13.663 2°55.958 5.1 22 15.2 101410 64
2009-07-10 06:51:21 51°13.663 2°55.958 4.5 50 15.2 101410 64
2009-07-10 06:51:26 51°13.663 2°55.958 4.9 27 15.2 101410 64
2009-07-10 06:51:31 51°13.663 2°55.958 4.8 52 15.2 101410 64
2009-07-10 06:51:36 51°13.663 2°55.958 3.7 21 15.2 101410 64
2009-07-10 06:51:41 51°13.663 2°55.958 6 57 15.2 101410 64
2009-07-10 06:51:46 51°13.663 2°55.958 5.4 25 15.2 101410 64
2009-07-10 06:51:51 51°13.663 2°55.958 5.5 60 15.2 101410 64
2009-07-10 06:51:56 51°13.663 2°55.958 4.4 26 15.2 101410 64
2009-07-10 06:52:01 51°13.663 2°55.958 4.7 56 15.2 101410 64
2009-07-10 06:52:06 51°13.663 2°55.958 4.4 20 15.2 101410 63
2009-07-10 06:52:11 51°13.663 2°55.958 4.1 50 15.2 101410 63
2009-07-10 06:52:16 51°13.663 2°55.958 5 23 15.3 101410 64
2009-07-10 06:52:21 51°13.663 2°55.958 5.2 54 15.3 101410 64
2009-07-10 06:52:26 51°13.663 2°55.958 5.4 20 15.3 101410 64
2009-07-10 06:52:31 51°13.663 2°55.958 4.9 56 15.3 101410 64
2009-07-10 06:52:36 51°13.663 2°55.958 5.8 26 15.2 101410 63
2009-07-10 06:52:41 51°13.663 2°55.959 3.7 56 15.2 101410 63
2009-07-10 06:52:46 51°13.663 2°55.958 3.2 26 15.2 101410 63
2009-07-10 06:52:51 51°13.663 2°55.959 3.4 53 15.2 101410 63
2009-07-10 06:52:56 51°13.663 2°55.959 2.6 24 15.3 101410 64
2009-07-10 06:53:01 51°13.663 2°55.959 3.8 52 15.3 101410 64
2009-07-10 06:53:06 51°13.663 2°55.959 3.3 21 15.3 101420 64
2009-07-10 06:53:11 51°13.663 2°55.959 3.4 56 15.3 101420 64
2009-07-10 06:53:16 51°13.664 2°55.959 2.8 27 15.3 101420 63
2009-07-10 06:53:21 51°13.664 2°55.959 5.1 58 15.3 101420 63
2009-07-10 06:53:26 51°13.664 2°55.959 6.9 20 15.3 101420 63
2009-07-10 06:53:31 51°13.664 2°55.959 5.6 81 15.3 101420 63
2009-07-10 06:53:36 51°13.664 2°55.959 5.3 21 15.3 101410 64
2009-07-10 06:53:41 51°13.664 2°55.959 5 57 15.3 101410 64
2009-07-10 06:53:46 51°13.664 2°55.959 3.7 26 15.3 101410 63
2009-07-10 06:53:51 51°13.664 2°55.96 3.9 52 15.3 101410 63
2009-07-10 06:53:56 51°13.664 2°55.96 4.2 27 15.3 101420 64
2009-07-10 06:54:01 51°13.664 2°55.959 4.9 57 15.3 101420 64
2009-07-10 06:54:06 51°13.664 2°55.959 3 21 15.3 101410 64
2009-07-10 06:54:11 51°13.664 2°55.959 3.8 56 15.3 101410 64
2009-07-10 06:54:16 51°13.664 2°55.96 3.5 26 15.3 101420 64
2009-07-10 06:54:21 51°13.664 2°55.96 2.6 50 15.3 101420 64
2009-07-10 06:54:26 51°13.664 2°55.96 1.9 26 15.3 101420 64
2009-07-10 06:54:31 51°13.664 2°55.96 4.8 59 15.3 101420 64
2009-07-10 06:54:36 51°13.663 2°55.96 3.1 22 15.3 101420 63
2009-07-10 06:54:41 51°13.664 2°55.96 4.5 59 15.3 101420 63
2009-07-10 06:54:46 51°13.663 2°55.96 4.3 26 15.3 101420 63
2009-07-10 06:54:51 51°13.663 2°55.96 4.7 51 15.3 101420 63
2009-07-10 06:54:56 51°13.663 2°55.96 5.4 28 15.3 101420 63
2009-07-10 06:55:01 51°13.663 2°55.96 4.4 52 15.3 101420 63
2009-07-10 06:55:06 51°13.664 2°55.96 4.4 21 15.3 101420 62
2009-07-10 06:55:11 51°13.663 2°55.96 3.5 54 15.3 101420 62
2009-07-10 06:55:16 51°13.663 2°55.96 4.5 21 15.3 101420 63
2009-07-10 06:55:21 51°13.663 2°55.96 5.7 56 15.3 101420 63
2009-07-10 06:55:26 51°13.663 2°55.96 4.6 27 15.3 101420 63
2009-07-10 06:55:31 51°13.664 2°55.96 4.2 60 15.3 101420 63
2009-07-10 06:55:36 51°13.663 2°55.96 6.6 21 15.4 101410 63
2009-07-10 06:55:41 51°13.664 2°55.96 4.9 59 15.4 101410 63
2009-07-10 06:55:46 51°13.664 2°55.96 3.9 22 15.3 101420 63
2009-07-10 06:55:51 51°13.663 2°55.96 5.7 58 15.3 101420 63
2009-07-10 06:55:56 51°13.663 2°55.96 7.1 25 15.3 101410 63
2009-07-10 06:56:01 51°13.663 2°55.96 5.5 59 15.3 101410 63
2009-07-10 06:56:06 51°13.663 2°55.96 6.2 22 15.3 101420 62
2009-07-10 06:56:11 51°13.664 2°55.96 4.5 57 15.3 101420 62
2009-07-10 06:56:16 51°13.664 2°55.959 3.3 27 15.3 101420 62
2009-07-10 06:56:21 51°13.664 2°55.959 4 52 15.3 101420 62
2009-07-10 06:56:26 51°13.664 2°55.959 3 20 15.3 101420 62
2009-07-10 06:56:31 51°13.664 2°55.959 4.4 53 15.3 101420 62
2009-07-10 06:56:36 51°13.664 2°55.959 5.2 27 15.3 101420 63
2009-07-10 06:56:41 51°13.664 2°55.959 2.6 57 15.3 101420 63
2009-07-10 06:56:46 51°13.665 2°55.959 2.5 23 15.3 101420 63
2009-07-10 06:56:51 51°13.665 2°55.96 3.1 44 15.3 101420 63
2009-07-10 06:56:56 51°13.665 2°55.96 4.8 23 15.3 101420 63
2009-07-10 06:57:01 51°13.665 2°55.96 3.7 57 15.3 101420 63
2009-07-10 06:57:06 51°13.665 2°55.96 4.9 24 15.3 101420 62
2009-07-10 06:57:11 51°13.665 2°55.96 4.3 55 15.3 101420 62
2009-07-10 06:57:16 51°13.665 2°55.96 3.3 26 15.3 101420 63
2009-07-10 06:57:21 51°13.665 2°55.96 4.4 59 15.3 101420 63
2009-07-10 06:57:26 51°13.665 2°55.96 4.9 21 15.3 101420 63
2009-07-10 06:57:31 51°13.665 2°55.96 5.6 55 15.3 101420 63
2009-07-10 06:57:36 51°13.665 2°55.96 5 28 15.3 101420 62
2009-07-10 06:57:41 51°13.665 2°55.96 4.1 56 15.3 101420 62
2009-07-10 06:57:46 51°13.665 2°55.96 4.6 24 15.3 101420 63
2009-07-10 06:57:51 51°13.665 2°55.96 6.9 58 15.3 101420 63
2009-07-10 06:57:56 51°13.665 2°55.96 6.6 20 15.3 101420 63
2009-07-10 06:58:01 51°13.665 2°55.96 4.8 57 15.3 101420 63
2009-07-10 06:58:06 51°13.665 2°55.96 4.1 21 15.4 101420 62
2009-07-10 06:58:11 51°13.665 2°55.96 3.8 54 15.4 101420 62
2009-07-10 06:58:16 51°13.665 2°55.96 4.6 24 15.4 101420 62
2009-07-10 06:58:21 51°13.665 2°55.96 4.9 56 15.4 101420 62
2009-07-10 06:58:26 51°13.665 2°55.96 6.2 29 15.4 101420 63
2009-07-10 06:58:31 51°13.665 2°55.96 6.3 50 15.4 101420 63
2009-07-10 06:58:36 51°13.665 2°55.96 5.4 28 15.3 101420 61
2009-07-10 06:58:41 51°13.665 2°55.96 3.5 58 15.3 101420 61
2009-07-10 06:58:46 51°13.665 2°55.96 4.3 26 15.3 101420 61
2009-07-10 06:58:51 51°13.665 2°55.96 4 51 15.3 101420 61
2009-07-10 06:58:56 51°13.665 2°55.96 4.8 21 15.3 101420 62
2009-07-10 06:59:01 51°13.665 2°55.96 3.8 44 15.3 101420 62
2009-07-10 06:59:06 51°13.665 2°55.959 4.4 21 15.3 101420 61
2009-07-10 06:59:10 51°13.665 2°55.959 6 53 15.3 101420 61
2009-07-10 06:59:16 51°13.665 2°55.959 7.1 20 15.3 101420 62
2009-07-10 06:59:21 51°13.665 2°55.959 5.6 51 15.3 101420 62
2009-07-10 06:59:25 51°13.665 2°55.959 4 29 15.3 101420 62
2009-07-10 06:59:30 51°13.664 2°55.959 4.7 57 15.3 101420 62
2009-07-10 06:59:36 51°13.664 2°55.959 5.9 29 15.3 101420 62
2009-07-10 06:59:41 51°13.664 2°55.959 3.1 51 15.3 101420 62
2009-07-10 06:59:45 51°13.664 2°55.959 5.1 25 15.3 101420 62
2009-07-10 06:59:50 51°13.664 2°55.959 4.8 54 15.3 101420 62
2009-07-10 06:59:55 51°13.664 2°55.959 3.1 23 15.3 101420 62
2009-07-10 07:00:01 51°13.664 2°55.959 3.7 50 15.3 101420 62
2009-07-10 07:00:05 51°13.664 2°55.959 3.3 20 15.3 101420 63
2009-07-10 07:00:10 51°13.664 2°55.959 4.1 56 15.3 101420 63
2009-07-10 07:00:15 51°13.664 2°55.959 4 26 15.3 101420 62
2009-07-10 07:00:20 51°13.664 2°55.959 3.9 75 15.3 101420 62
2009-07-10 07:00:25 51°13.664 2°55.959 3.2 23 15.3 101420 62
2009-07-10 07:00:30 51°13.664 2°55.959 4.6 52 15.3 101420 62
2009-07-10 07:00:35 51°13.664 2°55.959 5.4 29 15.3 101420 62
2009-07-10 07:00:40 51°13.664 2°55.959 4.7 53 15.3 101420 62
2009-07-10 07:00:45 51°13.664 2°55.959 3.4 22 15.4 101430 62
2009-07-10 07:00:50 51°13.664 2°55.959 5.1 57 15.4 101430 62
2009-07-10 07:00:55 51°13.664 2°55.959 5.5 24 15.4 101420 62
2009-07-10 07:01:00 51°13.664 2°55.959 4.5 56 15.4 101420 62
2009-07-10 07:01:05 51°13.664 2°55.959 4.6 27 15.4 101420 63
2009-07-10 07:01:10 51°13.663 2°55.959 3.2 52 15.4 101420 63
2009-07-10 07:01:16 51°13.663 2°55.959 3.3 26 15.4 101420 61
2009-07-10 07:01:20 51°13.663 2°55.959 5.2 41 15.4 101420 61
2009-07-10 07:01:25 51°13.664 2°55.959 4.6 22 15.4 101420 62
2009-07-10 07:01:30 51°13.664 2°55.959 4.5 57 15.4 101420 62
2009-07-10 07:01:35 51°13.664 2°55.959 3.3 28 15.4 101430 62
2009-07-10 07:01:40 51°13.664 2°55.959 3.6 52 15.4 101430 62
2009-07-10 07:01:45 51°13.664 2°55.959 5.1 21 15.4 101420 62
2009-07-10 07:01:50 51°13.664 2°55.959 6 75 15.4 101420 62
2009-07-10 07:01:55 51°13.664 2°55.959 5.1 28 15.4 101430 61
2009-07-10 07:02:01 51°13.664 2°55.959 5 57 15.4 101430 61
2009-07-10 07:02:05 51°13.664 2°55.959 7.6 26 15.5 101430 62
2009-07-10 07:02:10 51°13.664 2°55.959 6.3 57 15.5 101430 62
2009-07-10 07:02:15 51°13.664 2°55.959 5.7 23 15.5 101430 62
2009-07-10 07:02:21 51°13.664 2°55.959 6.5 51 15.5 101430 62
2009-07-10 07:02:25 51°13.664 2°55.959 7 25 15.4 101420 61
2009-07-10 07:02:30 51°13.664 2°55.959 6.4 51 15.4 101420 61
2009-07-10 07:02:35 51°13.664 2°55.959 6.6 23 15.4 101430 62
2009-07-10 07:02:41 51°13.664 2°55.959 6.1 80 15.4 101430 62
2009-07-10 07:02:45 51°13.663 2°55.959 6.1 21 15.4 101420 61
2009-07-10 07:02:50 51°13.663 2°55.959 6.8 57 15.4 101420 61
2009-07-10 07:02:55 51°13.663 2°55.959 4.6 29 15.4 101430 59
2009-07-10 07:03:00 51°13.663 2°55.959 5.7 82 15.4 101430 59
2009-07-10 07:03:05 51°13.663 2°55.959 4.4 23 15.3 101420 60
2009-07-10 07:03:10 51°13.663 2°55.959 6.6 58 15.3 101420 60
2009-07-10 07:03:15 51°13.663 2°55.959 5.6 27 15.4 101420 60
2009-07-10 07:03:21 51°13.663 2°55.959 4.4 75 15.4 101420 60
2009-07-10 07:03:25 51°13.663 2°55.959 5.2 27 15.4 101420 61
2009-07-10 07:03:30 51°13.663 2°55.959 4.5 51 15.4 101420 61
2009-07-10 07:03:35 51°13.663 2°55.959 6.1 20 15.4 101430 61
2009-07-10 07:03:41 51°13.663 2°55.959 5.6 75 15.4 101430 61
2009-07-10 07:03:45 51°13.663 2°55.959 4.7 26 15.4 101430 62
2009-07-10 07:03:50 51°13.663 2°55.959 4.3 81 15.4 101430 62
2009-07-10 07:03:56 51°13.663 2°55.959 4.4 27 15.4 101430 61
2009-07-10 07:04:01 51°13.663 2°55.959 3.3 57 15.4 101430 61
2009-07-10 07:04:05 51°13.663 2°55.959 4.9 23 15.4 101430 61
2009-07-10 07:04:10 51°13.663 2°55.959 2.7 76 15.4 101430 61
2009-07-10 07:04:15 51°13.663 2°55.959 5.8 29 15.4 101430 62
2009-07-10 07:04:20 51°13.663 2°55.959 4.1 52 15.4 101430 62
2009-07-10 07:04:25 51°13.663 2°55.959 6.4 23 15.4 101430 62
2009-07-10 07:04:30 51°13.663 2°55.959 4.2 56 15.4 101430 62
2009-07-10 07:04:35 51°13.663 2°55.959 4.5 21 15.5 101430 61
2009-07-10 07:04:41 51°13.663 2°55.959 6.6 58 15.5 101430 61
2009-07-10 07:04:45 51°13.663 2°55.959 5.9 21 15.5 101430 61
2009-07-10 07:04:50 51°13.663 2°55.959 3.4 56 15.5 101430 61
2009-07-10 07:04:55 51°13.663 2°55.959 4.9 22 15.5 101430 62
2009-07-10 07:05:00 51°13.663 2°55.96 3.6 54 15.5 101430 62
2009-07-10 07:05:05 51°13.663 2°55.96 3.5 21 15.5 101430 60
2009-07-10 07:05:10 51°13.663 2°55.96 5 57 15.5 101430 60
2009-07-10 07:05:15 51°13.663 2°55.96 5.7 21 15.5 101430 61
2009-07-10 07:05:20 51°13.663 2°55.96 4.8 57 15.5 101430 61
2009-07-10 07:05:25 51°13.663 2°55.96 3.5 26 15.5 101430 61
2009-07-10 07:05:30 51°13.662 2°55.96 3.5 57 15.5 101430 61
2009-07-10 07:05:35 51°13.662 2°55.96 6.2 19 15.5 101430 61
2009-07-10 07:05:40 51°13.662 2°55.96 4.2 51 15.5 101430 61
2009-07-10 07:05:45 51°13.662 2°55.96 3.7 29 15.5 101430 62
2009-07-10 07:05:50 51°13.662 2°55.96 4.8 51 15.5 101430 62
2009-07-10 07:05:55 51°13.662 2°55.96 3.8 23 15.5 101430 61
2009-07-10 07:06:00 51°13.662 2°55.96 3.9 53 15.5 101430 61
2009-07-10 07:06:05 51°13.662 2°55.96 4 24 15.5 101430 61
2009-07-10 07:06:10 51°13.662 2°55.96 6.3 81 15.5 101430 61
2009-07-10 07:06:15 51°13.662 2°55.96 5.7 29 15.5 101430 61
2009-07-10 07:06:20 51°13.662 2°55.96 4.2 56 15.5 101430 61
2009-07-10 07:06:25 51°13.662 2°55.96 4.3 22 15.5 101430 61
2009-07-10 07:06:30 51°13.662 2°55.96 4 76 15.5 101430 61
2009-07-10 07:06:35 51°13.662 2°55.96 6.1 21 15.5 101430 60
2009-07-10 07:06:40 51°13.662 2°55.96 4.1 50 15.5 101430 60
2009-07-10 07:06:45 51°13.662 2°55.96 6.2 25 15.5 101430 60
2009-07-10 07:06:50 51°13.662 2°55.96 4.7 58 15.5 101430 60
2009-07-10 07:06:55 51°13.662 2°55.96 3.5 29 15.5 101430 61
2009-07-10 07:07:00 51°13.662 2°55.96 2.7 53 15.5 101430 61
2009-07-10 07:07:05 51°13.662 2°55.96 5.2 27 15.5 101430 60
2009-07-10 07:07:10 51°13.662 2°55.96 8 59 15.5 101430 60
2009-07-10 07:07:15 51°13.662 2°55.959 5 28 15.5 101430 60
2009-07-10 07:07:20 51°13.662 2°55.959 5 55 15.5 101430 60
2009-07-10 07:07:25 51°13.662 2°55.959 4.3 28 15.5 101430 61
2009-07-10 07:07:30 51°13.662 2°55.959 4.4 52 15.5 101430 61
2009-07-10 07:07:35 51°13.662 2°55.959 7.1 20 15.5 101430 60
2009-07-10 07:07:40 51°13.662 2°55.959 10.5 83 15.5 101430 60
2009-07-10 07:07:45 51°13.662 2°55.959 8.3 25 15.5 101430 60
2009-07-10 07:07:49 51°13.662 2°55.959 6 56 15.5 101430 60
2009-07-10 07:07:54 51°13.662 2°55.959 6.3 22 15.5 101430 61
2009-07-10 07:07:59 51°13.662 2°55.959 6.3 54 15.5 101430 61
2009-07-10 07:08:04 51°13.663 2°55.959 5.6 28 15.5 101440 60
2009-07-10 07:08:09 51°13.663 2°55.959 7.1 53 15.5 101440 60
2009-07-10 07:08:14 51°13.663 2°55.959 5.4 26 15.5 101430 60
2009-07-10 07:08:19 51°13.663 2°55.959 4.9 56 15.5 101430 60
2009-07-10 07:08:24 51°13.663 2°55.959 4.4 20 15.5 101430 61
2009-07-10 07:08:29 51°13.662 2°55.959 4.3 74 15.5 101430 61
2009-07-10 07:08:34 51°13.663 2°55.959 4.4 26 15.5 101440 61
2009-07-10 07:08:38 51°13.663 2°55.959 2.6 57 15.5 101440 61
2009-07-10 07:08:43 51°13.663 2°55.959 4.5 19 15.5 101440 61
2009-07-10 07:08:49 51°13.663 2°55.959 5.3 59 15.5 101440 61
2009-07-10 07:08:54 51°13.663 2°55.959 5.6 25 15.4 101430 60
2009-07-10 07:08:59 51°13.663 2°55.959 7.1 55 15.4 101430 60
2009-07-10 07:09:04 51°13.663 2°55.959 7 26 15.5 101430 62
2009-07-10 07:09:09 51°13.663 2°55.96 6 55 15.5 101430 62
2009-07-10 07:09:14 51°13.663 2°55.96 4.3 20 15.5 101430 61
2009-07-10 07:09:19 51°13.663 2°55.959 7.1 57 15.5 101430 61
2009-07-10 07:09:24 51°13.663 2°55.96 8.1 23 15.5 101430 62
2009-07-10 07:09:29 51°13.663 2°55.96 4.6 51 15.5 101430 62
2009-07-10 07:09:33 51°13.663 2°55.959 6.5 25 15.5 101430 62
2009-07-10 07:09:38 51°13.663 2°55.959 7.8 56 15.5 101430 62
2009-07-10 07:09:43 51°13.663 2°55.959 5.3 19 15.4 101430 61
2009-07-10 07:09:48 51°13.663 2°55.959 6.9 51 15.4 101430 61
2009-07-10 07:09:53 51°13.663 2°55.959 5.8 27 15.4 101430 62
2009-07-10 07:09:58 51°13.663 2°55.96 5.1 59 15.4 101430 62
2009-07-10 07:10:03 51°13.663 2°55.959 6 26 15.4 101440 62
2009-07-10 07:10:08 51°13.663 2°55.96 5.4 56 15.4 101440 62
2009-07-10 07:10:13 51°13.663 2°55.959 6 28 15.4 101440 60
2009-07-10 07:10:18 51°13.663 2°55.96 5.8 57 15.4 101440 60
2009-07-10 07:10:23 51°13.663 2°55.96 5.4 21 15.4 101440 62
2009-07-10 07:10:29 51°13.663 2°55.96 8.1 54 15.4 101440 62
2009-07-10 07:10:33 51°13.663 2°55.96 5.8 29 15.4 101440 61
2009-07-10 07:10:38 51°13.663 2°55.96 4 56 15.4 101440 61
2009-07-10 07:10:44 51°13.662 2°55.96 6.8 23 15.4 101440 61
2009-07-10 07:10:49 51°13.663 2°55.96 5.6 76 15.4 101440 61
2009-07-10 07:10:54 51°13.662 2°55.96 5.4 23 15.3 101440 62
2009-07-10 07:10:59 51°13.662 2°55.96 8.5 52 15.3 101440 62
2009-07-10 07:11:04 51°13.662 2°55.96 7.4 24 15.3 101430 61
2009-07-10 07:11:09 51°13.662 2°55.96 8 57 15.3 101430 61
2009-07-10 07:11:14 51°13.662 2°55.96 8.1 21 15.3 101430 61
2009-07-10 07:11:19 51°13.662 2°55.961 7.3 54 15.3 101430 61
2009-07-10 07:11:24 51°13.662 2°55.961 5.2 26 15.3 101430 61
2009-07-10 07:11:29 51°13.662 2°55.961 5.2 57 15.3 101430 61
2009-07-10 07:11:34 51°13.662 2°55.961 9.4 21 15.3 101440 62
2009-07-10 07:11:40 51°13.662 2°55.961 9.6 80 15.3 101440 62
2009-07-10 07:11:45 51°13.662 2°55.961 7.4 26 15.3 101430 62
2009-07-10 07:11:50 51°13.662 2°55.961 6.3 51 15.3 101430 62
2009-07-10 07:11:55 51°13.662 2°55.961 5.6 19 15.3 101440 62
2009-07-10 07:12:00 51°13.662 2°55.961 8.4 54 15.3 101440 62
2009-07-10 07:12:05 51°13.662 2°55.961 7 22 15.3 101440 60
2009-07-10 07:12:10 51°13.662 2°55.961 6.9 56 15.3 101440 60
2009-07-10 07:12:15 51°13.662 2°55.961 3.8 29 15.3 101440 61
2009-07-10 07:12:20 51°13.662 2°55.961 5.4 56 15.3 101440 61
2009-07-10 07:12:25 51°13.662 2°55.961 6.5 25 15.3 101430 62
2009-07-10 07:12:30 51°13.662 2°55.961 5.5 58 15.3 101430 62
2009-07-10 07:12:35 51°13.662 2°55.961 5.1 20 15.3 101440 63
2009-07-10 07:12:40 51°13.662 2°55.961 3.1 57 15.3 101440 63
2009-07-10 07:12:45 51°13.662 2°55.961 3.5 21 15.3 101440 63
2009-07-10 07:12:50 51°13.662 2°55.96 4.9 75 15.3 101440 63
2009-07-10 07:12:55 51°13.662 2°55.96 5.9 28 15.3 101440 63
2009-07-10 07:13:00 51°13.662 2°55.96 7.3 57 15.3 101440 63
2009-07-10 07:13:04 51°13.662 2°55.96 6.1 27 15.3 101440 62
2009-07-10 07:13:09 51°13.662 2°55.96 5.9 82 15.3 101440 62
2009-07-10 07:13:14 51°13.662 2°55.96 6.4 22 15.3 101430 62
2009-07-10 07:13:19 51°13.662 2°55.96 6 53 15.3 101430 62
2009-07-10 07:13:24 51°13.662 2°55.96 6.7 28 15.3 101440 62
2009-07-10 07:13:29 51°13.662 2°55.96 5.6 58 15.3 101440 62
2009-07-10 07:13:34 51°13.662 2°55.96 5.4 23 15.3 101450 62
2009-07-10 07:13:39 51°13.662 2°55.96 5.4 55 15.3 101450 62
2009-07-10 07:13:44 51°13.663 2°55.959 5 21 15.3 101430 61
2009-07-10 07:13:49 51°13.663 2°55.959 6.1 75 15.3 101430 61
2009-07-10 07:13:53 51°13.663 2°55.959 3.5 23 15.4 101430 62
2009-07-10 07:13:58 51°13.663 2°55.959 3.1 57 15.4 101430 62
2009-07-10 07:14:03 51°13.663 2°55.959 2.4 27 15.4 101440 62
2009-07-10 07:14:08 51°13.663 2°55.959 3.9 55 15.4 101440 62
2009-07-10 07:14:13 51°13.663 2°55.959 4.7 28 15.4 101430 62
2009-07-10 07:14:18 51°13.663 2°55.959 3.8 50 15.4 101430 62
2009-07-10 07:14:23 51°13.663 2°55.959 7 20 15.4 101430 62
2009-07-10 07:14:28 51°13.663 2°55.959 4.1 50 15.4 101430 62
2009-07-10 07:14:33 51°13.662 2°55.96 3.4 21 15.4 101430 63
2009-07-10 07:14:37 51°13.662 2°55.96 3.7 57 15.4 101430 63
2009-07-10 07:14:42 51°13.662 2°55.96 7.3 27 15.4 101430 62
2009-07-10 07:14:47 51°13.662 2°55.96 8 57 15.4 101430 62
2009-07-10 07:14:52 51°13.662 2°55.96 7.1 27 15.4 101440 62
2009-07-10 07:14:57 51°13.662 2°55.96 6.5 56 15.4 101440 62
2009-07-10 07:15:02 51°13.662 2°55.96 5.9 28 15.5 101440 62
2009-07-10 07:15:07 51°13.662 2°55.96 4.6 56 15.5 101440 62
2009-07-10 07:15:12 51°13.662 2°55.961 7.8 27 15.4 101440 62
2009-07-10 07:15:17 51°13.662 2°55.961 8.9 58 15.4 101440 62
2009-07-10 07:15:22 51°13.661 2°55.961 5.3 21 15.4 101440 61
2009-07-10 07:15:27 51°13.661 2°55.961 7.2 77 15.4 101440 61
2009-07-10 07:15:32 51°13.662 2°55.961 5.9 44 15.4 101430 62
2009-07-10 07:15:37 51°13.662 2°55.961 5.1 56 15.4 101430 62
2009-07-10 07:15:41 51°13.662 2°55.961 4.1 23 15.4 101430 62
2009-07-10 07:15:47 51°13.662 2°55.961 5.7 75 15.4 101430 62
2009-07-10 07:15:51 51°13.662 2°55.961 5.6 27 15.4 101440 62
2009-07-10 07:15:57 51°13.662 2°55.961 5.3 53 15.4 101440 62
2009-07-10 07:16:02 51°13.662 2°55.961 5.4 26 15.4 101440 62
2009-07-10 07:16:07 51°13.662 2°55.96 3.6 51 15.4 101440 62
2009-07-10 07:16:12 51°13.662 2°55.96 3.6 25 15.4 101440 63
2009-07-10 07:16:17 51°13.662 2°55.96 5.6 77 15.4 101440 63
2009-07-10 07:16:22 51°13.662 2°55.96 4.6 23 15.5 101440 63
2009-07-10 07:16:27 51°13.662 2°55.96 5.5 57 15.5 101440 63
2009-07-10 07:16:32 51°13.662 2°55.96 5.9 26 15.5 101440 64
2009-07-10 07:16:37 51°13.662 2°55.96 7.2 55 15.5 101440 64
2009-07-10 07:16:42 51°13.662 2°55.96 6.9 19 15.5 101440 64
2009-07-10 07:16:47 51°13.662 2°55.96 7.1 54 15.5 101440 64
2009-07-10 07:16:52 51°13.662 2°55.96 6 27 15.5 101440 63
2009-07-10 07:16:57 51°13.662 2°55.96 9 53 15.5 101440 63
2009-07-10 07:17:01 51°13.662 2°55.96 8 21 15.5 101440 62
2009-07-10 07:17:07 51°13.662 2°55.96 6.4 52 15.5 101440 62
2009-07-10 07:17:12 51°13.662 2°55.96 4 26 15.5 101430 62
2009-07-10 07:17:17 51°13.662 2°55.96 6.2 57 15.5 101430 62
2009-07-10 07:17:21 51°13.662 2°55.96 4.7 19 15.4 101440 63
2009-07-10 07:17:27 51°13.662 2°55.96 4.9 57 15.4 101440 63
2009-07-10 07:17:32 51°13.663 2°55.96 3.7 22 15.4 101440 63
2009-07-10 07:17:37 51°13.662 2°55.96 5.7 56 15.4 101440 63
2009-07-10 07:17:42 51°13.662 2°55.96 5.3 28 15.4 101440 62
2009-07-10 07:17:46 51°13.663 2°55.96 3.3 59 15.4 101440 62
2009-07-10 07:17:52 51°13.663 2°55.96 2.9 28 15.5 101430 63
2009-07-10 07:17:57 51°13.663 2°55.96 3.3 52 15.5 101430 63
2009-07-10 07:18:01 51°13.663 2°55.959 3.8 21 15.4 101440 64
2009-07-10 07:18:07 51°13.663 2°55.96 7 57 15.4 101440 64
2009-07-10 07:18:12 51°13.663 2°55.96 7.7 27 15.5 101440 63
2009-07-10 07:18:17 51°13.662 2°55.96 8.9 51 15.5 101440 63
2009-07-10 07:18:21 51°13.662 2°55.96 6.4 20 15.5 101440 64
2009-07-10 07:18:26 51°13.662 2°55.96 5.8 53 15.5 101440 64
2009-07-10 07:18:32 51°13.662 2°55.96 6 26 15.4 101440 63
2009-07-10 07:18:37 51°13.662 2°55.96 7.6 56 15.4 101440 63
2009-07-10 07:18:42 51°13.662 2°55.96 6.9 22 15.4 101440 63
2009-07-10 07:18:47 51°13.662 2°55.96 5 57 15.4 101440 63
2009-07-10 07:18:52 51°13.662 2°55.96 3.9 26 15.4 101440 64
2009-07-10 07:18:57 51°13.662 2°55.96 8.8 53 15.4 101440 64
2009-07-10 07:19:01 51°13.662 2°55.96 7.6 27 15.4 101440 63
2009-07-10 07:19:07 51°13.662 2°55.96 3.7 59 15.4 101440 63
2009-07-10 07:19:11 51°13.662 2°55.96 6.9 22 15.4 101440 63
2009-07-10 07:19:17 51°13.662 2°55.96 7.2 45 15.4 101440 63
2009-07-10 07:19:21 51°13.662 2°55.96 7.5 41 15.4 101440 63
2009-07-10 07:19:26 51°13.662 2°55.96 5.7 42 15.4 101440 63
2009-07-10 07:19:32 51°13.663 2°55.96 7.5 43 15.4 101440 64
2009-07-10 07:19:37 51°13.663 2°55.96 4.7 53 15.4 101440 64
2009-07-10 07:19:41 51°13.662 2°55.96 4.6 27 15.4 101440 62
2009-07-10 07:19:47 51°13.663 2°55.96 6.3 83 15.4 101440 62
2009-07-10 07:19:52 51°13.662 2°55.96 5.2 21 15.3 101440 63
2009-07-10 07:19:57 51°13.662 2°55.96 4.1 53 15.3 101440 63
2009-07-10 07:20:01 51°13.662 2°55.96 4.7 23 15.4 101440 63
2009-07-10 07:20:07 51°13.662 2°55.96 4.3 78 15.4 101440 63
2009-07-10 07:20:12 51°13.662 2°55.96 4 27 15.4 101440 64
2009-07-10 07:20:17 51°13.662 2°55.96 6.1 51 15.4 101440 64
2009-07-10 07:20:21 51°13.662 2°55.96 6.4 19 15.4 101440 62
2009-07-10 07:20:27 51°13.662 2°55.96 3.2 78 15.4 101440 62
2009-07-10 07:20:31 51°13.662 2°55.96 9.2 28 15.4 101440 64
2009-07-10 07:20:37 51°13.662 2°55.96 7.6 53 15.4 101440 64
2009-07-10 07:20:41 51°13.662 2°55.96 8.3 27 15.4 101440 64
2009-07-10 07:20:47 51°13.662 2°55.96 5.9 56 15.4 101440 64
2009-07-10 07:20:52 51°13.662 2°55.96 5.4 26 15.5 101450 64
2009-07-10 07:20:57 51°13.662 2°55.96 6 55 15.5 101450 64
2009-07-10 07:21:02 51°13.662 2°55.96 4.1 23 15.5 101450 64
2009-07-10 07:21:07 51°13.662 2°55.96 6.1 58 15.5 101450 64
2009-07-10 07:21:12 51°13.662 2°55.96 7.4 20 15.5 101450 64
2009-07-10 07:21:17 51°13.662 2°55.96 6.3 56 15.5 101450 64
2009-07-10 07:21:22 51°13.662 2°55.96 7.1 26 15.4 101450 63
2009-07-10 07:21:27 51°13.662 2°55.96 5.5 59 15.4 101450 63
2009-07-10 07:21:32 51°13.662 2°55.96 5 28 15.4 101440 63
2009-07-10 07:21:37 51°13.662 2°55.96 5.8 58 15.4 101440 63
2009-07-10 07:21:42 51°13.662 2°55.96 4.7 22 15.4 101450 63
2009-07-10 07:21:47 51°13.662 2°55.96 5.5 28 15.4 101450 63
2009-07-10 07:21:52 51°13.662 2°55.96 5.4 24 15.4 101450 62
2009-07-10 07:21:57 51°13.663 2°55.96 5.8 57 15.4 101450 62
2009-07-10 07:22:01 51°13.662 2°55.96 5.4 25 15.4 101450 62
2009-07-10 07:22:07 51°13.663 2°55.96 5.5 77 15.4 101450 62
2009-07-10 07:22:12 51°13.662 2°55.96 5.4 37 15.4 101450 62
2009-07-10 07:22:17 51°13.662 2°55.96 7.7 58 15.4 101450 62
2009-07-10 07:22:21 51°13.662 2°55.96 10.1 43 15.4 101450 63
2009-07-10 07:22:27 51°13.663 2°55.96 7.5 57 15.4 101450 63
2009-07-10 07:22:32 51°13.662 2°55.96 5.6 21 15.4 101450 63
2009-07-10 07:22:37 51°13.662 2°55.96 7.7 51 15.4 101450 63
2009-07-10 07:22:42 51°13.663 2°55.96 7.3 42 15.3 101440 63
2009-07-10 07:22:46 51°13.662 2°55.96 5 57 15.3 101440 63
2009-07-10 07:22:52 51°13.663 2°55.96 6.2 25 15.3 101450 62
2009-07-10 07:22:57 51°13.662 2°55.96 6.9 44 15.3 101450 62
2009-07-10 07:23:02 51°13.662 2°55.96 7 21 15.3 101440 62
2009-07-10 07:23:07 51°13.662 2°55.96 8.3 57 15.3 101440 62
2009-07-10 07:23:12 51°13.662 2°55.96 5.7 20 15.3 101440 63
2009-07-10 07:23:17 51°13.662 2°55.96 4.3 60 15.3 101440 63
2009-07-10 07:23:22 51°13.662 2°55.96 4.7 27 15.3 101440 64
2009-07-10 07:23:27 51°13.662 2°55.96 4.4 57 15.3 101440 64
2009-07-10 07:23:32 51°13.663 2°55.96 3.3 21 15.3 101450 64
2009-07-10 07:23:37 51°13.663 2°55.959 6.3 56 15.3 101450 64
2009-07-10 07:23:42 51°13.662 2°55.959 7.1 29 15.3 101450 63
2009-07-10 07:23:47 51°13.662 2°55.959 5.6 51 15.3 101450 63
2009-07-10 07:23:51 51°13.662 2°55.959 7.4 22 15.3 101440 64
2009-07-10 07:23:57 51°13.662 2°55.959 4.9 53 15.3 101440 64
2009-07-10 07:24:01 51°13.662 2°55.959 6.9 27 15.3 101440 63
2009-07-10 07:24:06 51°13.662 2°55.959 3.2 58 15.3 101440 63
2009-07-10 07:24:12 51°13.662 2°55.959 4.4 28 15.3 101450 63
2009-07-10 07:24:17 51°13.662 2°55.96 3.6 56 15.3 101450 63
2009-07-10 07:24:22 51°13.662 2°55.959 4 28 15.3 101450 63
2009-07-10 07:24:26 51°13.662 2°55.959 4.6 80 15.3 101450 63
2009-07-10 07:24:32 51°13.662 2°55.959 2.9 29 15.3 101450 64
2009-07-10 07:24:37 51°13.662 2°55.959 2.3 57 15.3 101450 64
2009-07-10 07:24:41 51°13.663 2°55.959 4.2 19 15.3 101450 63
2009-07-10 07:24:47 51°13.663 2°55.959 3.5 82 15.3 101450 63
2009-07-10 07:24:51 51°13.663 2°55.959 3.8 22 15.3 101450 63
2009-07-10 07:24:57 51°13.663 2°55.959 3.5 58 15.3 101450 63
2009-07-10 07:25:01 51°13.663 2°55.959 4.2 30 15.4 101450 64
2009-07-10 07:25:07 51°13.662 2°55.96 3.2 58 15.4 101450 64
2009-07-10 07:25:11 51°13.662 2°55.96 7.3 27 15.4 101450 64
2009-07-10 07:25:17 51°13.662 2°55.959 5.7 51 15.4 101450 64
2009-07-10 07:25:22 51°13.662 2°55.959 5.6 19 15.4 101450 63
2009-07-10 07:25:27 51°13.662 2°55.959 6.1 53 15.4 101450 63
2009-07-10 07:25:31 51°13.662 2°55.959 5 28 15.4 101450 64
2009-07-10 07:25:37 51°13.662 2°55.959 4.3 50 15.4 101450 64
2009-07-10 07:25:42 51°13.663 2°55.959 4.8 27 15.4 101440 63
2009-07-10 07:25:47 51°13.663 2°55.959 8.5 51 15.4 101440 63
2009-07-10 07:25:52 51°13.663 2°55.959 8.7 26 15.4 101440 63
2009-07-10 07:25:57 51°13.663 2°55.959 6.5 51 15.4 101440 63
2009-07-10 07:26:01 51°13.663 2°55.959 5.9 43 15.4 101450 64
2009-07-10 07:26:07 51°13.662 2°55.959 4.5 54 15.4 101450 64
2009-07-10 07:26:12 51°13.662 2°55.96 3.6 23 15.4 101450 63
2009-07-10 07:26:17 51°13.662 2°55.96 4.7 57 15.4 101450 63
2009-07-10 07:26:21 51°13.662 2°55.96 4.6 27 15.3 101450 63
2009-07-10 07:26:27 51°13.662 2°55.96 5.7 53 15.3 101450 63
2009-07-10 07:26:32 51°13.662 2°55.96 7.6 25 15.3 101450 63
2009-07-10 07:26:37 51°13.662 2°55.96 8.2 59 15.3 101450 63
2009-07-10 07:26:41 51°13.662 2°55.96 8.2 24 15.3 101440 64
2009-07-10 07:26:47 51°13.662 2°55.96 5.7 76 15.3 101440 64
2009-07-10 07:26:52 51°13.662 2°55.96 7.3 26 15.3 101450 64
2009-07-10 07:26:57 51°13.662 2°55.96 7.5 57 15.3 101450 64
2009-07-10 07:27:01 51°13.662 2°55.96 6.7 29 15.3 101450 62
2009-07-10 07:27:05 51°13.662 2°55.96 4.8 54 15.3 101450 62
2009-07-10 07:27:11 51°13.662 2°55.96 4.3 22 15.3 101460 63
2009-07-10 07:27:17 51°13.662 2°55.959 3.9 52 15.3 101460 63
2009-07-10 07:27:21 51°13.662 2°55.959 4.4 23 15.3 101450 63
2009-07-10 07:27:26 51°13.662 2°55.959 5.6 57 15.3 101450 63
2009-07-10 07:27:32 51°13.662 2°55.959 7.4 24 15.3 101450 65
2009-07-10 07:27:37 51°13.662 2°55.959 7.9 59 15.3 101450 65
2009-07-10 07:27:42 51°13.662 2°55.96 7 26 15.3 101450 65
2009-07-10 07:27:47 51°13.662 2°55.96 5.7 52 15.3 101450 65
2009-07-10 07:27:51 51°13.662 2°55.96 3.7 25 15.3 101450 64
2009-07-10 07:27:57 51°13.662 2°55.96 4.1 52 15.3 101450 64
2009-07-10 07:28:02 51°13.662 2°55.96 8.3 28 15.3 101440 63
2009-07-10 07:28:07 51°13.662 2°55.96 4.7 57 15.3 101440 63
2009-07-10 07:28:12 51°13.662 2°55.96 6.2 24 15.3 101450 64
2009-07-10 07:28:17 51°13.662 2°55.96 3.8 60 15.3 101450 64
2009-07-10 07:28:21 51°13.662 2°55.96 4.5 28 15.3 101450 63
2009-07-10 07:28:27 51°13.663 2°55.96 4.7 55 15.3 101450 63
2009-07-10 07:28:32 51°13.663 2°55.96 5.7 24 15.3 101450 64
2009-07-10 07:28:37 51°13.662 2°55.96 5.9 59 15.3 101450 64
2009-07-10 07:28:41 51°13.662 2°55.96 6.2 22 15.3 101450 63
2009-07-10 07:28:47 51°13.662 2°55.96 8.5 53 15.3 101450 63
2009-07-10 07:28:52 51°13.662 2°55.96 6.9 24 15.3 101450 62
2009-07-10 07:28:57 51°13.662 2°55.96 7 52 15.3 101450 62
2009-07-10 07:29:01 51°13.662 2°55.96 5.6 21 15.3 101460 63
2009-07-10 07:29:06 51°13.662 2°55.96 5.3 58 15.3 101460 63
2009-07-10 07:29:12 51°13.662 2°55.96 5 27 15.3 101450 62
2009-07-10 07:29:17 51°13.662 2°55.96 6.7 54 15.3 101450 62
2009-07-10 07:29:21 51°13.662 2°55.96 5 23 15.3 101450 62
2009-07-10 07:29:27 51°13.662 2°55.96 4 57 15.3 101450 62
2009-07-10 07:29:31 51°13.662 2°55.96 6.1 24 15.3 101450 61
2009-07-10 07:29:37 51°13.662 2°55.96 4.7 51 15.3 101450 61
2009-07-10 07:29:42 51°13.662 2°55.96 6.7 26 15.3 101450 62
2009-07-10 07:29:47 51°13.662 2°55.96 5.5 59 15.3 101450 62
2009-07-10 07:29:51 51°13.662 2°55.96 5.6 26 15.3 101450 62
2009-07-10 07:29:57 51°13.662 2°55.959 5.4 81 15.3 101450 62
2009-07-10 07:30:02 51°13.662 2°55.959 6.1 26 15.3 101450 63
2009-07-10 07:30:07 51°13.662 2°55.959 5.4 56 15.3 101450 63
2009-07-10 07:30:11 51°13.662 2°55.959 5.6 24 15.3 101450 63
2009-07-10 07:30:17 51°13.662 2°55.959 3.3 51 15.3 101450 63
2009-07-10 07:30:21 51°13.662 2°55.959 3.9 25 15.3 101450 62
2009-07-10 07:30:26 51°13.661 2°55.959 4.7 57 15.3 101450 62
2009-07-10 07:30:32 51°13.661 2°55.959 4.8 25 15.3 101450 63
2009-07-10 07:30:37 51°13.661 2°55.959 4.1 58 15.3 101450 63
2009-07-10 07:30:42 51°13.661 2°55.959 5.4 29 15.3 101450 63
2009-07-10 07:30:46 51°13.661 2°55.959 4.3 58 15.3 101450 63
2009-07-10 07:30:52 51°13.661 2°55.958 4.7 27 15.4 101450 63
2009-07-10 07:30:57 51°13.662 2°55.957 5.4 53 15.4 101450 63
2009-07-10 07:31:01 51°13.662 2°55.955 5.5 24 15.4 101450 63
2009-07-10 07:31:07 51°13.663 2°55.951 5.4 56 15.4 101450 63
2009-07-10 07:31:12 51°13.664 2°55.947 4.9 24 15.4 101450 63
2009-07-10 07:31:17 51°13.665 2°55.943 4.5 51 15.4 101450 63
2009-07-10 07:31:23 51°13.666 2°55.937 4.9 25 15.4 101450 64
2009-07-10 07:31:29 51°13.668 2°55.93 7 53 15.4 101450 64
2009-07-10 07:31:34 51°13.67 2°55.923 4.6 28 15.5 101450 64
2009-07-10 07:31:40 51°13.672 2°55.916 3.5 52 15.5 101450 64
2009-07-10 07:31:45 51°13.674 2°55.909 3.4 27 15.5 101450 64
2009-07-10 07:31:50 51°13.676 2°55.902 7 55 15.5 101450 64
2009-07-10 07:31:55 51°13.678 2°55.895 8.6 23 15.5 101460 63
2009-07-10 07:32:01 51°13.68 2°55.887 7.6 55 15.5 101460 63
2009-07-10 07:32:05 51°13.681 2°55.881 9.3 26 15.6 101450 65
2009-07-10 07:32:10 51°13.683 2°55.873 8.4 56 15.6 101450 65
2009-07-10 07:32:15 51°13.684 2°55.865 8 27 15.6 101450 64
2009-07-10 07:32:20 51°13.686 2°55.857 7 52 15.6 101450 64
2009-07-10 07:32:25 51°13.688 2°55.849 7.7 26 15.6 101460 64
2009-07-10 07:32:30 51°13.689 2°55.842 9.1 58 15.6 101460 64
2009-07-10 07:32:35 51°13.691 2°55.834 11.9 23 15.5 101470 61
2009-07-10 07:32:40 51°13.692 2°55.827 8.2 56 15.5 101470 61
2009-07-10 07:32:45 51°13.693 2°55.819 11.9 22 15.5 101460 61
2009-07-10 07:32:50 51°13.695 2°55.811 8.5 57 15.5 101460 61
2009-07-10 07:32:55 51°13.696 2°55.803 5.3 22 15.4 101450 62
2009-07-10 07:33:00 51°13.697 2°55.796 10.2 55 15.4 101450 62
2009-07-10 07:33:05 51°13.699 2°55.789 9.9 25 15.4 101460 61
2009-07-10 07:33:10 51°13.7 2°55.782 9.6 57 15.4 101460 61
2009-07-10 07:33:15 51°13.701 2°55.775 10.1 24 15.4 101470 62
2009-07-10 07:33:21 51°13.702 2°55.768 8.6 57 15.4 101470 62
2009-07-10 07:33:25 51°13.703 2°55.763 8.7 24 15.4 101460 61
2009-07-10 07:33:30 51°13.703 2°55.759 5.7 75 15.4 101460 61
2009-07-10 07:33:35 51°13.704 2°55.757 7.6 26 15.4 101470 62
2009-07-10 07:33:41 51°13.704 2°55.757 5.3 307 15.4 101470 62
2009-07-10 07:33:45 51°13.704 2°55.758 5.6 24 15.3 101460 61
2009-07-10 07:33:50 51°13.705 2°55.759 6.2 59 15.3 101460 61
2009-07-10 07:33:55 51°13.705 2°55.762 5.6 267 15.3 101470 62
2009-07-10 07:34:01 51°13.706 2°55.763 8.3 304 15.3 101470 62
2009-07-10 07:34:05 51°13.706 2°55.763 6.7 265 15.3 101460 62
2009-07-10 07:34:10 51°13.706 2°55.763 7.1 309 15.3 101460 62
2009-07-10 07:34:14 51°13.705 2°55.761 7.5 270 15.3 101470 61
2009-07-10 07:34:19 51°13.703 2°55.759 9.4 313 15.3 101470 61
2009-07-10 07:34:25 51°13.701 2°55.755 8.3 26 15.3 101450 61
2009-07-10 07:34:29 51°13.699 2°55.752 9.8 54 15.3 101450 61
2009-07-10 07:34:34 51°13.697 2°55.748 6 26 15.3 101450 61
2009-07-10 07:34:41 51°13.694 2°55.743 6.1 55 15.3 101450 61
2009-07-10 07:34:45 51°13.693 2°55.742 5.4 29 15.3 101460 61
2009-07-10 07:34:50 51°13.692 2°55.741 5.9 309 15.3 101460 61
2009-07-10 07:34:55 51°13.692 2°55.741 5.2 256 15.3 101480 62
2009-07-10 07:35:00 51°13.693 2°55.742 4.4 304 15.3 101480 62
2009-07-10 07:35:05 51°13.695 2°55.744 6.8 253 15.3 101450 61
2009-07-10 07:35:10 51°13.698 2°55.746 6.2 301 15.3 101450 61
2009-07-10 07:35:15 51°13.7 2°55.748 4.8 27 15.4 101460 62
2009-07-10 07:35:20 51°13.702 2°55.749 7 303 15.4 101460 62
2009-07-10 07:35:25 51°13.703 2°55.75 8.6 24 15.4 101450 62
2009-07-10 07:35:30 51°13.703 2°55.751 5.7 309 15.4 101450 62
2009-07-10 07:35:35 51°13.702 2°55.751 7.8 25 15.4 101460 63
2009-07-10 07:35:40 51°13.701 2°55.752 6.3 304 15.4 101460 63
2009-07-10 07:35:45 51°13.7 2°55.752 8.2 20 15.4 101460 61
2009-07-10 07:35:50 51°13.699 2°55.753 6.5 301 15.4 101460 61
2009-07-10 07:35:55 51°13.7 2°55.753 7.4 24 15.4 101460 61
2009-07-10 07:36:00 51°13.701 2°55.754 7 308 15.4 101460 61
2009-07-10 07:36:05 51°13.704 2°55.754 6.6 21 15.4 101440 62
2009-07-10 07:36:10 51°13.707 2°55.753 8.7 301 15.4 101440 62
2009-07-10 07:36:15 51°13.711 2°55.751 10.9 317 15.5 101460 62
2009-07-10 07:36:20 51°13.715 2°55.749 10 309 15.5 101460 62
2009-07-10 07:36:25 51°13.719 2°55.744 8.6 320 15.4 101450 61
2009-07-10 07:36:29 51°13.723 2°55.74 9 325 15.4 101450 61
2009-07-10 07:36:34 51°13.728 2°55.734 7.7 319 15.5 101440 62
2009-07-10 07:36:39 51°13.734 2°55.728 7.2 328 15.5 101440 62
2009-07-10 07:36:44 51°13.74 2°55.721 6.4 332 15.5 101430 62
2009-07-10 07:36:49 51°13.747 2°55.714 6.4 301 15.5 101430 62
2009-07-10 07:36:53 51°13.753 2°55.708 6 330 15.5 101450 62
2009-07-10 07:36:58 51°13.76 2°55.7 5.5 330 15.5 101450 62
2009-07-10 07:37:03 51°13.768 2°55.692 8.9 324 15.5 101440 62
2009-07-10 07:37:08 51°13.776 2°55.684 6.8 310 15.5 101440 62
2009-07-10 07:37:13 51°13.784 2°55.676 7.1 323 15.5 101440 63
2009-07-10 07:37:17 51°13.791 2°55.67 7.6 327 15.5 101440 63
2009-07-10 07:37:22 51°13.8 2°55.661 8.8 325 15.5 101440 61
2009-07-10 07:37:27 51°13.809 2°55.653 10.1 327 15.5 101440 61
2009-07-10 07:37:32 51°13.818 2°55.645 8.1 323 15.5 101440 63
2009-07-10 07:37:37 51°13.827 2°55.637 9.8 328 15.5 101440 63
2009-07-10 07:37:41 51°13.835 2°55.631 8.2 330 15.5 101440 63
2009-07-10 07:37:46 51°13.845 2°55.623 10.9 280 15.5 101440 63
2009-07-10 07:37:52 51°13.856 2°55.614 9 324 15.5 101440 61
2009-07-10 07:37:57 51°13.866 2°55.606 10.7 322 15.5 101440 61
2009-07-10 07:38:01 51°13.874 2°55.599 10.8 328 15.5 101430 61
2009-07-10 07:38:05 51°13.882 2°55.593 10.5 305 15.5 101430 61
2009-07-10 07:38:12 51°13.895 2°55.582 10 323 15.5 101430 62
2009-07-10 07:38:17 51°13.905 2°55.574 13.2 303 15.5 101430 62
2009-07-10 07:38:21 51°13.913 2°55.568 9.1 318 15.5 101440 63
2009-07-10 07:38:26 51°13.923 2°55.56 10 308 15.5 101440 63
2009-07-10 07:38:32 51°13.936 2°55.551 8.1 317 15.5 101430 62
2009-07-10 07:38:37 51°13.946 2°55.544 8.4 302 15.5 101430 62
2009-07-10 07:38:42 51°13.956 2°55.536 11 322 15.5 101430 62
2009-07-10 07:38:46 51°13.964 2°55.53 8.5 326 15.5 101430 62
2009-07-10 07:38:52 51°13.976 2°55.52 8.1 21 15.5 101430 62
2009-07-10 07:38:57 51°13.986 2°55.513 9.2 282 15.5 101430 62
2009-07-10 07:39:02 51°13.997 2°55.505 7.7 320 15.5 101430 62
2009-07-10 07:39:07 51°14.007 2°55.498 8.3 301 15.5 101430 62
2009-07-10 07:39:11 51°14.016 2°55.492 9.6 319 15.5 101430 62
2009-07-10 07:39:17 51°14.028 2°55.484 8.9 308 15.5 101430 62
2009-07-10 07:39:21 51°14.037 2°55.477 10.7 318 15.5 101430 63
2009-07-10 07:39:26 51°14.047 2°55.47 11.3 301 15.5 101430 63
2009-07-10 07:39:32 51°14.06 2°55.461 15.9 316 15.5 101430 62
2009-07-10 07:39:37 51°14.07 2°55.453 13 307 15.5 101430 62
2009-07-10 07:39:42 51°14.081 2°55.445 14.1 316 15.5 101440 63
2009-07-10 07:39:46 51°14.089 2°55.439 11.9 310 15.5 101440 63
2009-07-10 07:39:52 51°14.102 2°55.431 14.8 317 15.5 101450 63
2009-07-10 07:39:57 51°14.112 2°55.422 13.6 301 15.5 101450 63
2009-07-10 07:40:01 51°14.12 2°55.416 14.7 25 15.5 101430 63
2009-07-10 07:40:07 51°14.132 2°55.407 14.5 302 15.5 101430 63
2009-07-10 07:40:12 51°14.142 2°55.399 13.8 317 15.5 101430 63
2009-07-10 07:40:17 51°14.152 2°55.39 12.5 304 15.5 101430 63
2009-07-10 07:40:21 51°14.16 2°55.383 12.4 317 15.5 101420 63
2009-07-10 07:40:27 51°14.171 2°55.372 11.9 279 15.5 101420 63
2009-07-10 07:40:32 51°14.181 2°55.362 12.8 319 15.4 101420 63
2009-07-10 07:40:37 51°14.19 2°55.352 16.1 305 15.4 101420 63
2009-07-10 07:40:41 51°14.197 2°55.344 11.2 320 15.4 101410 62
2009-07-10 07:40:46 51°14.206 2°55.333 13.2 306 15.4 101410 62
2009-07-10 07:40:52 51°14.216 2°55.319 13.7 319 15.4 101420 63
2009-07-10 07:40:57 51°14.225 2°55.307 12.1 306 15.4 101420 63
2009-07-10 07:41:02 51°14.234 2°55.295 13.4 322 15.4 101410 63
2009-07-10 07:41:07 51°14.242 2°55.282 11.3 306 15.4 101410 63
2009-07-10 07:41:12 51°14.251 2°55.269 13.2 321 15.4 101410 63
2009-07-10 07:41:17 51°14.259 2°55.255 10 286 15.4 101410 63
2009-07-10 07:41:22 51°14.267 2°55.241 12.6 323 15.4 101400 63
2009-07-10 07:41:27 51°14.276 2°55.227 14.2 304 15.4 101400 63
2009-07-10 07:41:32 51°14.285 2°55.212 13.1 319 15.4 101420 63
2009-07-10 07:41:37 51°14.294 2°55.198 12.5 308 15.4 101420 63
2009-07-10 07:41:41 51°14.301 2°55.186 14 320 15.4 101420 63
2009-07-10 07:41:47 51°14.312 2°55.168 13.8 304 15.4 101420 63
2009-07-10 07:41:52 51°14.32 2°55.153 13.5 323 15.4 101410 64
2009-07-10 07:41:57 51°14.329 2°55.137 17.3 306 15.4 101410 64
2009-07-10 07:42:01 51°14.337 2°55.125 15.1 326 15.4 101400 65
2009-07-10 07:42:07 51°14.347 2°55.104 18.3 304 15.4 101400 65
2009-07-10 07:42:13 51°14.358 2°55.084 16.6 326 15.5 101380 66
2009-07-10 07:42:18 51°14.367 2°55.067 17.5 304 15.5 101380 66